Weather History for LIBC - April, 2014

Change the Weather History Date:

Saturday, April 5, 2014

  Actual Average Record
Temperature  
Mean Temperature 55 °F -  
Max Temperature 59 °F 65 °F 69 °F (2011)
Min Temperature 51 °F 48 °F 46 °F (1997)
Degree Days  
Heating Degree Days 10    
Growing Degree Days 5 (Base 50)    
Moisture  
Dew Point 54 °F    
Average Humidity 97    
Maximum Humidity 100    
Minimum Humidity 88    
Precipitation  
Precipitation 0.00 in 0.05 in - ()
Sea Level Pressure  
Sea Level Pressure 29.68 in    
Wind  
Wind Speed 9 mph ()    
Max Wind Speed 17 mph    
Max Gust Speed 30 mph    
Visibility 5.2 miles    
Events Rain , Thunderstorm    
Averages and records for this station are not official NWS values.
T = Trace of Precipitation, MM = Missing Value Source: Averaged Metar Reports

Daily Weather History Graph

Daily Weather History Graph

Search for Another Location

Airport or City:

Trip Planner

Search our weather history database for the weather conditions in past years. The results will help you decide how hot, cold, wet, or windy it might be!

Date:

Astronomy

Apr. 05, 2014 Rise Set
Actual Time 6:30 AM CEST 7:18 PM CEST
Civil Twilight 6:03 AM CEST 7:46 PM CEST
Nautical Twilight 5:31 AM CEST 8:18 PM CEST
Astronomical Twilight 4:58 AM CEST 8:51 PM CEST
Moon 10:24 AM CEST (4/5) 12:12 AM CEST (4/5)
Length of Visible Light 13h 42m
Length of Day
12h 48m
Waxing Crescent, 32% of the Moon is Illuminated
Apr 5
Waxing Crescent
Apr 7
First Quarter
Apr 15
Full
Apr 22
Last Quarter
Apr 29
New

Hourly Weather History & Observations

Time (CEST) Temp. Dew Point Humidity Pressure Visibility Wind Dir Wind Speed Gust Speed Precip Events Conditions
5:50 AM 53.6 °F 51.8 °F 94% 29.71 in 6.2 mi South 8.1 mph - N/A   Scattered Clouds
6:50 AM 55.4 °F 55.4 °F 100% 29.71 in 6.2 mi SSE 8.1 mph - N/A   Mostly Cloudy
7:50 AM 57.2 °F 55.4 °F 94% 29.71 in 6.2 mi South 10.4 mph - N/A   Scattered Clouds
8:50 AM 57.2 °F 55.4 °F 94% 29.71 in 6.2 mi South 11.5 mph - N/A   Scattered Clouds
9:50 AM 57.2 °F 55.4 °F 94% 29.71 in 6.2 mi SSE 13.8 mph - N/A   Scattered Clouds
10:50 AM 59.0 °F 57.2 °F 94% 29.71 in 6.2 mi South 15.0 mph - N/A   Scattered Clouds
11:50 AM 59.0 °F 57.2 °F 94% 29.68 in 6.2 mi South 17.3 mph - N/A   Scattered Clouds
12:50 PM 59.0 °F 57.2 °F 94% 29.68 in 6.2 mi SSE 17.3 mph 29.9 mph N/A Rain Light Rain
1:50 PM 59.0 °F 55.4 °F 88% 29.68 in 6.2 mi South 13.8 mph - N/A   Scattered Clouds
2:50 PM 57.2 °F 57.2 °F 100% 29.65 in 5.0 mi South 15.0 mph - N/A Rain Light Rain
3:59 PM 57.2 °F 55.4 °F 94% 29.65 in 2.5 mi South 12.7 mph - N/A Rain Light Rain
4:20 PM 53.6 °F 53.6 °F 100% 29.65 in 1.9 mi South 13.8 mph - N/A Rain Rain
4:50 PM 51.8 °F 51.8 °F 100% 29.65 in 2.5 mi SW 4.6 mph - N/A Rain Rain
5:24 PM 51.8 °F 51.8 °F 100% 29.65 in 3.7 mi SSW 5.8 mph - N/A Rain Rain
5:50 PM 51.8 °F 51.8 °F 100% 29.65 in 3.7 mi SSE 3.5 mph - N/A Rain , Thunderstorm Light Thunderstorms and Rain
6:12 PM 51.8 °F 51.8 °F 100% 29.65 in 5.0 mi SSE 5.8 mph - N/A Rain Light Rain
6:50 PM 53.6 °F 53.6 °F 100% 29.65 in 6.2 mi South 4.6 mph - N/A   Mostly Cloudy
7:50 PM 51.8 °F 51.8 °F 100% 29.65 in 6.2 mi South 2.3 mph - N/A   Scattered Clouds
8:50 PM 51.8 °F 51.8 °F 100% 29.68 in 6.2 mi NNE 2.3 mph - N/A   Scattered Clouds
9:50 PM 51.8 °F 51.8 °F 100% 29.71 in 6.2 mi SSW 2.3 mph - N/A   Scattered Clouds